Date,TemperatureHighF,TemperatureAvgF,TemperatureLowF,DewpointHighF,DewpointAvgF,DewpointLowF,HumidityHigh,HumidityAvg,HumidityLow,PressureMaxIn,PressureMinIn,WindSpeedMaxMPH,WindSpeedAvgMPH,GustSpeedMaxMPH,PrecipitationSumIn
2013-1-1,28,14,-5,26,10,-9,96,85,79,29.92,29.67,15,2,15,0.01
2013-1-2,16,4,-6,12,0,-11,92,83,77,30.22,29.87,18,2,18,0.02
2013-1-3,17,0,-16,14,-4,-20,92,80,61,30.24,29.96,9,0,9,0.00
2013-1-4,29,25,17,25,21,14,89,86,79,29.96,29.77,17,2,17,0.01
2013-1-5,29,23,11,25,17,8,89,78,64,30.20,29.78,21,3,21,0.01
2013-1-6,32,26,13,29,23,10,90,87,84,30.15,29.89,12,1,12,0.01
2013-1-7,32,20,12,29,16,8,89,82,69,30.33,29.92,13,2,13,0.00
2013-1-8,35,27,19,24,21,16,89,77,61,30.35,30.20,17,2,17,0.00
2013-1-9,41,30,15,30,22,12,92,75,51,30.35,29.93,21,2,21,0.00
2013-1-10,36,32,22,31,24,19,87,72,62,30.53,30.00,22,4,22,0.00
2013-1-11,39,30,18,36,24,15,90,78,60,30.53,30.09,21,3,21,0.03
2013-1-12,46,42,38,42,39,35,92,90,85,30.12,30.03,11,2,14,0.01
2013-1-13,41,38,37,39,36,35,93,92,90,30.08,30.03,5,1,5,0.00
2013-1-14,58,38,30,44,30,23,94,74,60,30.24,29.77,15,2,19,0.00
2013-1-15,31,28,25,23,22,19,85,75,63,30.29,30.19,6,0,7,0.00
2013-1-16,30,28,26,27,24,20,88,84,73,30.20,29.77,8,0,8,0.08
2013-1-17,30,21,8,26,15,-1,89,76,55,30.11,29.77,5,0,5,0.04
2013-1-18,18,7,-7,8,-3,-12,92,64,40,30.36,30.07,12,1,12,0.00
2013-1-19,41,31,18,24,18,8,86,61,48,30.26,29.74,18,3,18,0.01
2013-1-20,42,31,13,30,20,1,87,62,48,29.89,29.40,29,4,29,0.02
2013-1-21,18,11,0,10,4,-5,83,71,52,30.02,29.77,9,0,9,0.00
2013-1-22,15,7,0,9,2,-6,85,79,60,30.04,29.76,14,1,16,0.01
2013-1-23,2,-6,-17,-4,-14,-22,79,70,54,30.17,30.02,14,2,15,0.00
2013-1-24,6,-6,-20,-6,-15,-25,92,66,47,30.36,30.16,18,2,18,0.00
2013-1-25,11,3,-10,2,-6,-15,91,67,49,30.38,30.10,14,1,14,0.00
2013-1-26,12,6,-6,4,-2,-10,92,70,42,30.29,30.07,18,3,18,0.00
2013-1-27,17,8,0,5,-2,-7,80,65,35,30.50,30.29,22,3,22,0.00
2013-1-28,21,12,0,18,8,-5,92,83,69,30.48,29.99,19,2,19,0.07
2013-1-29,35,28,21,32,24,18,91,87,81,30.15,29.97,22,3,22,0.00
2013-1-30,59,47,22,53,44,18,93,88,77,30.14,29.25,20,4,20,0.24
2013-1-31,59,38,20,53,32,9,92,78,53,29.90,28.78,26,4,26,0.78
2013-2-1,20,16,12,12,8,4,84,70,61,30.06,29.48,29,3,29,0.00
2013-2-2,17,13,5,12,7,1,87,79,63,30.16,30.02,17,1,17,0.00
2013-2-3,23,13,0,12,7,-4,89,77,55,30.02,29.74,11,1,11,0.00
2013-2-4,22,15,4,13,5,-3,87,66,34,29.89,29.71,21,2,21,0.00
2013-2-5,19,11,-4,9,1,-8,83,66,46,30.01,29.89,10,0,10,0.00
2013-2-6,29,20,7,21,11,-4,92,69,46,30.32,29.87,19,2,19,0.00
2013-2-7,17,10,2,3,-2,-6,70,58,46,30.53,30.31,13,1,13,0.00
2013-2-8,21,18,14,18,13,1,88,81,50,30.41,29.86,48,9,59,0.10
2013-2-9,17,10,3,14,4,-3,87,79,66,30.34,29.86,23,5,23,0.02
2013-2-10,25,9,-7,11,1,-12,92,71,46,30.49,30.30,9,1,9,0.00
2013-2-11,40,34,11,37,24,3,91,72,26,30.29,29.59,22,3,22,0.12
2013-2-12,34,32,29,28,26,21,82,78,73,29.82,29.57,17,2,17,0.00
2013-2-13,34,29,25,24,21,17,83,73,51,29.81,29.72,9,1,9,0.00
2013-2-14,33,28,25,22,21,20,86,76,60,29.92,29.71,9,0,9,0.00
2013-2-15,38,34,26,30,26,19,86,70,54,29.92,29.83,15,3,15,0.00
2013-2-16,30,24,16,23,13,3,85,64,48,29.94,29.84,14,2,14,0.00
2013-2-17,16,14,13,4,3,2,63,60,56,29.85,29.76,15,5,15,0.00
2013-2-18,14,9,7,4,2,-1,81,70,59,29.88,29.64,11,7,25,0.00
2013-2-19,22,11,5,2,-2,-5,74,58,32,30.16,29.89,11,4,25,0.00
2013-2-20,38,22,9,20,14,2,83,71,35,30.15,29.56,15,2,27,0.10
2013-2-21,20,15,7,18,10,3,96,82,74,30.37,29.73,16,2,16,0.02
2013-2-22,33,26,13,24,19,10,88,76,63,30.42,30.21,21,2,21,0.00
2013-2-23,31,30,29,29,25,20,92,81,67,30.22,29.86,22,3,22,0.03
2013-2-24,36,31,28,31,28,25,90,87,82,29.92,29.73,13,2,13,0.04
2013-2-25,34,30,27,31,27,25,92,88,83,30.21,29.92,8,0,8,0.00
2013-2-26,38,32,27,29,27,25,92,82,68,30.29,30.05,32,3,32,0.00
2013-2-27,37,32,27,32,28,25,93,88,69,30.28,29.57,56,19,56,0.11
2013-2-28,41,34,30,36,30,26,93,87,71,30.00,29.53,43,4,56,0.11
2013-3-1,32,30,27,30,26,24,92,86,75,29.72,29.56,17,3,17,0.00
2013-3-2,28,26,20,25,23,17,90,88,81,29.73,29.69,0,0,0,0.05
2013-3-3,27,23,20,23,20,17,89,87,84,29.71,29.66,0,0,0,0.01
2013-3-4,26,22,20,22,20,18,91,88,81,29.87,29.67,0,0,0,0.02
2013-3-5,35,26,22,27,22,19,90,84,72,30.08,29.87,0,0,0,0.01
2013-3-6,36,32,23,30,26,20,92,76,61,30.16,30.05,0,0,0,0.00
2013-3-7,34,30,26,25,22,20,89,75,65,30.15,30.09,0,0,0,0.01
2013-3-8,38,29,21,26,23,18,92,81,63,30.29,30.09,0,0,0,0.01
2013-3-9,46,29,12,28,21,9,89,72,44,30.34,30.26,9,1,9,0.00
2013-3-10,53,41,22,26,21,15,86,49,22,30.32,30.13,16,2,16,0.00
2013-3-11,50,45,36,31,27,22,76,50,35,30.18,29.93,16,2,16,0.00
2013-3-12,51,46,34,46,41,31,91,83,54,29.95,29.63,23,3,23,0.95
2013-3-13,37,33,28,32,30,23,93,89,74,29.77,29.70,15,0,15,0.03
2013-3-14,30,21,13,24,16,8,87,79,61,29.87,29.70,21,3,21,0.03
2013-3-15,30,21,8,25,13,3,90,73,48,29.88,29.59,18,3,18,0.11
2013-3-16,25,20,11,20,13,7,87,75,55,29.89,29.72,15,2,15,0.00
2013-3-17,23,16,4,13,6,-1,88,65,45,30.34,29.88,21,3,21,0.00
2013-3-18,33,18,-2,19,3,-5,85,55,27,30.44,30.10,17,2,17,0.00
2013-3-19,29,26,24,26,23,19,91,88,80,30.10,29.66,45,12,45,0.16
2013-3-20,30,25,21,24,20,16,90,81,69,29.73,29.63,18,2,21,0.02
2013-3-21,32,25,14,20,16,11,88,69,47,29.72,29.61,14,1,14,0.00
2013-3-22,32,22,9,25,17,6,89,80,55,29.75,29.63,13,1,13,0.05
2013-3-23,32,28,22,23,20,18,89,75,57,29.80,29.66,22,4,25,0.00
2013-3-24,35,30,23,24,22,18,85,71,63,29.85,29.77,20,4,20,0.00
2013-3-25,40,31,19,28,23,16,90,72,48,29.79,29.54,15,2,15,0.00
2013-3-26,39,32,24,27,24,18,86,71,44,29.80,29.58,16,3,16,0.00
2013-3-27,43,33,22,30,25,19,92,73,51,29.92,29.77,21,2,21,0.00
2013-3-28,45,36,31,35,30,27,92,82,59,30.04,29.90,15,2,15,0.00
2013-3-29,42,35,30,35,31,27,91,87,68,30.06,30.00,7,0,11,0.06
2013-3-30,46,35,25,35,24,14,92,68,29,30.09,30.00,16,1,16,0.06
2013-3-31,51,39,24,36,24,15,92,60,29,30.09,29.69,17,2,18,0.03
2013-4-1,41,35,25,38,28,12,90,77,46,29.74,29.49,15,0,15,0.20
2013-4-2,30,25,21,16,12,10,64,57,46,29.88,29.74,0,0,0,0.00
2013-4-3,37,28,21,15,12,5,69,50,30,30.18,29.87,0,0,0,0.00
2013-4-4,46,34,17,22,17,12,83,52,36,30.25,29.92,14,2,18,0.00
2013-4-5,46,38,28,29,22,16,75,55,41,29.92,29.74,19,4,19,0.00
2013-4-6,37,28,20,17,10,4,73,49,28,30.28,29.92,26,5,26,0.00
2013-4-7,56,45,31,37,23,10,67,42,30,30.25,29.82,23,5,23,0.01
2013-4-8,53,45,38,38,33,30,79,63,45,30.08,29.87,20,3,21,0.00
2013-4-9,54,48,40,47,40,33,91,75,58,29.99,29.77,23,4,23,0.10
2013-4-10,46,42,38,42,39,36,93,91,86,29.97,29.86,8,0,8,0.15
2013-4-11,38,34,30,36,25,20,93,71,54,30.15,29.88,14,3,14,0.00
2013-4-12,33,31,28,29,25,18,88,81,55,30.13,29.76,47,11,47,0.23
2013-4-13,46,37,32,37,32,28,92,82,64,29.90,29.76,21,2,24,0.05
2013-4-14,34,34,33,32,32,31,92,91,90,29.89,29.87,3,0,3,0.00
2013-4-15,40,35,27,34,31,25,92,86,67,30.23,29.87,4,1,10,0.07
2013-4-16,57,51,25,51,46,23,92,83,49,30.33,29.93,20,4,20,0.44
2013-4-17,52,43,33,43,32,27,88,67,43,30.33,30.03,22,4,22,0.00
2013-4-18,58,48,32,48,34,26,83,59,46,30.33,29.94,26,4,26,0.00
2013-4-19,70,62,43,59,53,40,89,74,57,29.95,29.42,25,6,25,0.90
2013-4-20,47,40,31,40,29,18,92,67,45,30.23,29.60,19,2,19,0.03
2013-4-21,42,32,25,22,16,7,70,53,25,30.67,30.23,18,4,18,0.00
2013-4-22,51,40,26,26,18,14,70,43,27,30.70,30.52,28,5,28,0.00
2013-4-23,46,38,30,36,30,24,85,74,67,30.52,30.12,24,4,24,0.00
2013-4-24,70,55,34,49,40,30,92,63,32,30.12,29.62,15,2,15,0.00
2013-4-25,62,44,31,52,32,26,85,65,41,30.26,29.62,21,3,21,0.07
2013-4-26,53,43,29,36,29,24,85,60,43,30.43,30.24,14,2,14,0.00
2013-4-27,57,43,28,36,27,15,90,59,21,30.43,30.28,12,1,12,0.00
2013-4-28,68,52,31,41,33,26,85,54,28,30.30,30.10,12,2,12,0.00
2013-4-29,68,54,31,46,40,27,85,61,28,30.29,30.10,15,2,15,0.00
2013-4-30,69,56,44,51,44,35,83,64,43,30.25,30.11,13,1,15,0.00
2013-5-1,74,59,39,44,37,29,87,50,20,30.39,30.25,14,2,14,0.00
2013-5-2,78,60,41,46,40,33,82,49,29,30.40,30.26,35,4,35,0.00
2013-5-3,67,56,43,41,36,28,71,48,29,30.43,30.29,29,4,29,0.00
2013-5-4,73,57,39,47,40,34,91,58,26,30.32,30.15,16,2,16,0.00
2013-5-5,74,60,38,42,35,30,82,43,21,30.22,30.09,13,2,13,0.00
2013-5-6,74,57,38,46,34,17,84,48,12,30.17,30.03,12,1,12,0.00
2013-5-7,78,62,43,50,41,35,90,52,24,30.10,29.99,11,1,11,0.00
2013-5-8,73,60,46,58,51,41,91,76,47,30.11,29.97,29,5,29,0.37
2013-5-9,65,59,50,56,53,48,94,82,62,29.97,29.81,13,1,13,0.02
2013-5-10,70,59,47,59,53,45,94,80,59,29.94,29.77,12,1,12,0.00
2013-5-11,66,60,54,59,56,50,90,85,61,29.78,29.58,14,2,14,0.18
2013-5-12,56,49,39,50,39,26,89,69,36,29.74,29.57,22,2,22,0.00
2013-5-13,45,40,36,34,30,26,81,65,52,30.02,29.74,18,3,18,0.00
2013-5-14,53,40,29,35,30,26,92,69,38,30.08,29.97,14,2,18,0.01
2013-5-15,60,46,29,49,36,26,89,73,35,30.03,29.59,16,2,16,0.13
2013-5-16,72,56,42,49,41,35,92,62,26,29.83,29.60,25,3,27,0.00
2013-5-17,62,50,40,42,38,35,89,66,39,30.20,29.83,22,4,22,0.00
2013-5-18,68,54,36,48,38,29,93,60,27,30.28,30.18,13,1,13,0.00
2013-5-19,66,54,45,54,48,40,90,80,54,30.24,30.10,13,2,13,0.21
2013-5-20,67,59,55,62,56,52,92,89,81,30.10,29.93,16,1,16,0.08
2013-5-21,74,65,56,66,60,53,94,84,68,29.94,29.76,30,3,30,0.65
2013-5-22,76,66,54,68,61,51,95,85,72,29.82,29.71,19,3,19,0.42
2013-5-23,74,68,60,66,62,57,92,81,69,29.75,29.65,15,3,15,0.46
2013-5-24,60,47,41,57,45,39,93,92,90,29.95,29.59,20,4,20,0.79
2013-5-25,42,39,34,40,37,32,92,92,90,29.94,29.86,0,0,0,1.11
2013-5-26,43,39,34,40,37,31,97,91,86,30.09,29.80,0,0,0,0.23
2013-5-27,63,48,32,45,36,30,94,70,35,30.17,30.07,19,2,19,0.00
2013-5-28,70,54,36,51,41,34,93,66,28,30.20,30.08,12,1,12,0.00
2013-5-29,68,60,52,64,56,46,92,87,67,30.08,29.91,15,2,15,0.22
2013-5-30,83,70,54,67,62,48,93,79,52,30.05,29.91,11,1,15,0.22
2013-5-31,86,72,58,68,63,56,96,73,47,30.04,29.86,15,1,15,0.00
2013-6-1,86,73,62,72,66,59,93,78,51,29.89,29.75,15,1,15,0.15
2013-6-2,81,71,62,70,65,58,93,83,65,29.78,29.60,17,2,17,0.68
2013-6-3,70,61,47,59,52,40,93,74,46,29.82,29.72,16,1,16,0.00
2013-6-4,62,51,38,46,42,36,97,74,53,30.09,29.82,22,3,22,0.00
2013-6-5,66,55,40,49,42,29,92,66,27,30.17,30.08,13,1,14,0.00
2013-6-6,68,60,52,51,45,36,87,60,44,30.13,30.01,10,2,15,0.05
2013-6-7,54,51,49,50,47,45,92,88,86,30.01,29.81,29,8,33,0.48
2013-6-8,58,55,51,56,53,48,93,92,89,30.00,29.72,17,1,25,0.17
2013-6-9,72,61,51,59,54,49,94,80,50,30.15,29.99,15,1,15,0.00
2013-6-10,70,59,48,57,52,46,94,78,50,30.17,29.88,27,3,27,0.21
2013-6-11,57,55,53,54,52,50,93,90,86,29.88,29.53,35,8,35,0.95
2013-6-12,63,56,50,55,52,48,94,87,68,29.82,29.56,0,0,0,0.07
2013-6-13,64,56,47,54,50,45,94,83,60,29.80,29.65,0,0,0,0.08
2013-6-14,70,60,49,58,52,47,94,76,50,29.83,29.66,0,0,0,0.00
2013-6-15,71,58,41,53,45,39,93,68,40,29.92,29.82,13,1,13,0.00
2013-6-16,68,58,46,58,52,43,92,82,55,29.91,29.66,16,2,16,0.16
2013-6-17,73,62,51,61,56,49,94,83,61,29.89,29.74,23,2,23,0.11
2013-6-18,65,56,45,54,50,42,92,82,52,29.95,29.86,11,1,11,0.06
2013-6-19,65,53,39,49,43,36,93,71,42,30.17,29.95,17,2,17,0.01
2013-6-20,72,57,40,54,45,38,93,68,36,30.23,30.16,11,1,11,0.00
2013-6-21,77,63,46,60,52,43,94,70,42,30.23,30.17,10,1,11,0.00
2013-6-22,78,67,55,67,61,52,91,82,62,30.18,30.04,19,1,19,0.10
2013-6-23,83,72,66,73,66,62,92,84,69,30.06,29.90,18,2,18,0.58
2013-6-24,84,72,65,73,67,62,92,83,65,29.95,29.84,16,2,16,0.26
2013-6-25,82,71,64,72,66,62,93,85,65,29.89,29.69,19,1,19,0.65
2013-6-26,74,68,62,67,64,60,94,90,73,29.76,29.68,9,0,9,0.21
2013-6-27,81,72,62,70,66,60,94,83,59,29.76,29.64,17,1,17,0.16
2013-6-28,77,67,60,66,62,57,92,84,65,29.64,29.36,32,7,32,0.52
2013-6-29,78,69,60,66,63,57,94,83,62,29.62,29.36,24,2,32,0.09
2013-6-30,80,70,64,69,63,59,94,80,55,29.87,29.42,9,1,16,0.34
2013-7-1,72,68,64,68,65,62,94,90,82,30.00,29.86,11,0,11,0.23
2013-7-2,72,64,61,69,62,59,95,93,88,30.07,29.98,8,0,8,0.45
2013-7-3,72,64,61,68,62,59,94,93,88,30.07,29.99,2,0,4,0.45
2013-7-9,83,76,69,71,68,66,94,78,62,30.02,29.93,16,2,16,0.00
2013-7-10,76,72,69,71,68,66,92,87,81,29.94,29.68,13,2,13,1.31
2013-7-11,77,70,57,70,64,54,93,82,54,29.96,29.68,11,2,16,0.27
2013-7-12,77,65,53,65,58,51,94,79,55,30.16,29.96,11,1,11,0.00
2013-7-13,76,68,57,67,61,55,94,81,63,30.25,30.16,13,1,13,0.00
2013-7-14,83,73,65,72,68,63,94,83,59,30.26,30.17,10,0,10,0.00
2013-7-15,87,75,64,72,66,61,95,76,48,30.18,30.08,12,1,12,0.00
2013-7-16,85,74,63,69,65,60,93,75,50,30.17,30.11,17,2,17,0.00
2013-7-17,88,77,64,75,68,61,93,76,57,30.15,29.92,13,1,13,0.00
2013-7-18,86,74,66,75,69,64,94,85,63,29.99,29.87,13,1,13,0.60
2013-7-19,88,77,68,76,70,66,94,81,61,29.88,29.61,17,2,17,0.29
2013-7-20,78,72,64,70,66,62,92,83,71,29.77,29.60,14,1,14,0.07
2013-7-21,74,66,58,62,59,55,93,81,56,29.97,29.76,12,1,12,0.00
2013-7-22,80,68,55,68,61,52,92,78,61,29.97,29.79,10,1,10,0.00
2013-7-23,75,68,64,68,64,61,93,88,72,29.79,29.50,9,0,9,1.48
2013-7-24,66,61,48,64,56,44,94,85,70,29.99,29.53,18,2,18,0.06
2013-7-25,69,56,40,57,49,38,93,79,61,30.10,29.99,10,1,10,0.01
2013-7-26,69,60,51,61,55,49,94,85,71,30.08,29.98,12,1,12,0.00
2013-7-27,77,64,48,64,56,46,94,76,49,30.02,29.92,10,1,10,0.00
2013-7-28,74,68,59,66,62,56,93,82,71,29.94,29.85,13,2,13,0.58
2013-7-29,76,69,59,65,60,54,93,77,49,30.02,29.89,12,1,12,0.02
2013-7-30,76,64,53,64,56,51,93,77,49,30.08,29.90,11,1,12,0.00
2013-7-31,76,64,52,62,56,50,93,76,48,30.10,29.98,9,1,11,0.00
2013-8-1,75,64,56,64,59,53,93,84,61,29.99,29.78,14,2,16,0.29
2013-8-2,76,66,58,63,58,53,94,77,47,29.79,29.74,15,1,15,0.01
2013-8-3,73,63,56,60,56,53,92,79,52,29.81,29.73,15,2,18,0.28
2013-8-4,68,59,50,59,53,48,94,83,62,29.90,29.78,17,2,17,0.14
2013-8-5,67,58,47,52,46,36,89,69,37,30.03,29.89,20,3,20,0.00
2013-8-6,73,60,46,58,50,44,93,74,46,30.09,30.02,7,0,11,0.00
2013-8-7,75,66,52,61,57,49,92,74,53,30.10,29.97,16,2,16,0.00
2013-8-8,80,72,67,68,65,60,88,80,68,29.97,29.89,14,2,14,0.00
2013-8-9,76,71,69,71,68,65,93,89,78,29.90,29.71,9,1,9,1.18
2013-8-10,71,64,50,66,55,47,93,74,44,29.99,29.75,17,2,17,0.00
2013-8-11,73,61,47,57,52,45,93,75,47,30.05,29.95,9,1,9,0.00
2013-8-12,75,63,49,62,56,47,93,77,55,29.99,29.86,13,1,13,0.00
2013-8-13,70,63,58,64,59,55,92,87,74,29.87,29.64,12,1,12,0.25
2013-8-14,65,56,46,59,51,44,91,83,69,29.94,29.65,17,2,17,0.02
2013-8-15,70,56,43,55,48,41,94,78,50,30.08,29.94,13,1,13,0.01
2013-8-16,73,60,46,59,52,44,94,78,51,30.18,30.06,10,1,10,0.00
2013-8-17,74,62,50,61,55,47,93,78,53,30.25,30.18,10,1,10,0.00
2013-8-18,73,63,53,61,56,50,94,79,49,30.23,30.05,10,0,10,0.01
2013-8-19,78,64,52,65,57,50,94,78,53,30.06,29.93,10,1,10,0.00
2013-8-20,80,67,54,66,59,52,94,78,55,30.07,29.97,6,0,8,0.00
2013-8-21,81,69,55,67,61,53,93,78,60,30.11,29.96,10,1,10,0.00
2013-8-22,81,69,58,67,62,56,95,82,60,29.98,29.75,14,1,14,0.22
2013-8-23,67,60,48,62,54,45,93,81,57,30.15,29.82,14,2,14,0.01
2013-8-24,72,57,42,57,48,40,94,75,39,30.32,30.15,9,1,9,0.01
2013-8-25,74,61,45,60,52,43,94,75,48,30.34,30.11,9,1,9,0.03
2013-8-26,71,66,61,66,62,57,92,87,81,30.12,29.84,12,1,12,0.66
2013-8-27,78,70,64,69,66,62,94,88,70,29.87,29.81,5,1,10,0.25
2013-8-28,79,69,60,72,65,58,94,87,69,29.91,29.81,19,1,19,0.19
2013-8-29,76,67,59,66,62,56,93,83,68,30.00,29.89,22,2,22,0.00
2013-8-30,80,69,59,69,63,57,94,83,66,30.00,29.73,10,1,15,0.00
2013-8-31,80,69,59,70,66,57,94,90,68,29.92,29.69,11,1,11,0.90
2013-9-1,79,71,67,70,67,64,95,87,71,29.82,29.74,8,0,8,0.01
2013-9-2,78,70,62,68,66,59,93,86,67,29.78,29.62,18,1,18,0.30
2013-9-3,70,63,58,62,59,56,94,87,71,29.77,29.65,14,1,14,0.06
2013-9-4,73,62,54,60,56,52,94,82,60,29.87,29.77,15,1,15,0.02
2013-9-5,61,54,41,57,46,38,93,75,48,30.14,29.82,17,2,17,0.21
2013-9-6,63,50,36,47,40,34,94,73,45,30.24,30.05,10,1,10,0.01
2013-9-7,67,57,47,56,48,44,92,74,50,30.06,29.82,12,1,12,0.01
2013-9-8,59,53,40,54,45,37,91,75,56,30.08,29.73,25,3,25,0.13
2013-9-9,65,51,36,51,42,34,93,74,50,30.19,30.06,12,1,12,0.00
2013-9-10,73,65,56,70,61,51,92,87,75,30.07,29.95,13,2,13,0.52
2013-9-11,86,76,67,76,71,64,93,84,69,29.99,29.84,20,2,20,0.35
2013-9-12,78,70,64,70,65,62,93,86,73,29.88,29.57,14,2,14,0.42
2013-9-13,64,56,49,62,54,47,93,92,90,29.81,29.55,16,3,16,0.15
2013-9-14,59,50,44,51,47,41,94,88,69,30.06,29.80,13,2,13,0.01
2013-9-15,62,51,37,53,46,35,94,84,66,30.13,30.00,11,1,11,0.01
2013-9-16,53,47,33,51,43,30,93,88,68,30.29,29.98,17,2,17,0.18
2013-9-17,58,44,31,47,38,29,94,81,60,30.46,30.29,11,1,11,0.00
2013-9-18,66,51,37,51,42,35,94,76,44,30.32,30.12,10,1,10,0.01
2013-9-19,72,56,42,57,48,40,94,77,43,30.14,30.01,8,1,8,0.01
2013-9-20,76,60,46,60,52,44,98,77,40,30.06,29.90,13,1,13,0.00
2013-9-21,72,64,56,59,55,46,87,71,41,29.90,29.55,27,4,27,0.07
2013-9-22,63,53,44,59,49,40,92,85,74,29.84,29.51,16,3,16,0.06
2013-9-23,48,43,40,40,38,36,89,82,70,30.03,29.84,22,4,22,0.00
2013-9-24,58,48,43,45,40,38,90,75,54,30.02,29.88,20,3,20,0.00
2013-9-25,61,49,36,50,43,34,94,81,62,29.98,29.90,14,2,14,0.00
2013-9-26,60,49,36,50,43,33,94,82,63,30.15,29.98,12,2,15,0.00
2013-9-27,62,52,44,52,48,41,91,84,70,30.27,30.14,11,1,13,0.00
2013-9-28,69,54,40,56,47,38,94,81,55,30.34,30.23,9,1,9,0.00
2013-9-29,69,56,40,56,49,38,95,81,56,30.33,30.04,7,1,9,0.01
2013-9-30,69,55,42,56,49,40,94,82,60,30.20,29.95,9,1,9,0.01
2013-10-1,72,57,42,58,51,40,94,81,59,29.98,29.85,8,1,10,0.00
2013-10-2,74,59,48,61,53,46,94,82,55,29.95,29.80,7,1,16,0.01
2013-10-3,68,54,43,54,46,41,94,77,44,30.07,29.95,11,1,11,0.01
2013-10-4,66,54,43,55,49,40,94,85,59,30.07,30.01,12,1,12,0.00
2013-10-5,61,56,53,54,52,49,92,86,74,30.10,30.03,9,1,11,0.01
2013-10-6,56,52,49,51,45,37,91,79,52,30.10,30.01,32,5,32,0.14
2013-10-7,72,59,52,63,54,45,92,85,68,30.01,29.56,33,5,33,0.98
2013-10-8,56,48,36,46,39,33,94,74,47,30.36,29.85,15,2,15,0.00
2013-10-9,62,47,34,44,37,32,93,71,40,30.44,30.33,13,1,13,0.00
2013-10-10,64,49,35,47,40,33,93,73,39,30.33,30.16,7,1,9,0.00
2013-10-11,71,54,42,50,42,34,87,69,27,30.17,30.09,10,1,10,0.00
2013-10-12,66,54,41,53,47,38,90,79,60,30.32,30.15,19,4,22,0.00
2013-10-13,67,55,45,49,46,42,89,74,48,30.36,30.27,19,3,19,0.00
2013-10-14,56,52,45,52,49,41,93,89,83,30.30,30.21,7,1,9,0.04
2013-10-15,62,56,52,55,52,50,94,86,73,30.25,30.06,15,2,15,0.00
2013-10-16,62,57,53,53,50,47,87,77,56,30.07,29.78,12,3,15,0.01
2013-10-17,62,56,48,53,50,44,91,80,57,29.80,29.63,11,2,13,0.19
2013-10-18,58,52,48,49,45,36,93,78,58,29.86,29.54,16,3,16,0.11
2013-10-19,59,48,35,45,41,33,93,76,57,29.89,29.63,15,1,15,0.09
2013-10-20,52,47,36,46,38,32,88,72,52,29.97,29.61,17,3,17,0.05
2013-10-21,58,46,32,43,37,30,94,73,52,30.05,29.86,12,1,12,0.00
2013-10-22,55,47,31,45,38,28,89,72,54,29.86,29.65,17,3,17,0.02
2013-10-23,47,39,32,35,32,28,89,76,57,29.74,29.59,9,1,9,0.01
2013-10-24,41,36,29,36,32,27,96,84,73,29.86,29.64,15,2,16,0.05
2013-10-25,42,36,32,33,29,26,92,78,59,30.09,29.86,17,2,17,0.01
2013-10-26,43,38,28,33,30,25,89,75,54,30.10,29.78,21,3,21,0.01
2013-10-27,43,39,29,36,31,26,92,74,62,30.00,29.73,15,2,15,0.01
2013-10-28,41,35,23,37,29,20,95,79,54,30.35,29.99,21,2,21,0.05
2013-10-29,40,28,18,27,21,16,98,76,40,30.45,30.33,9,1,10,0.00
2013-10-30,43,34,19,35,28,16,90,78,44,30.45,30.17,7,0,10,0.03
2013-10-31,58,45,31,55,42,22,94,88,62,30.28,29.60,18,2,18,0.55
2013-11-1,63,58,51,59,51,42,90,78,48,29.60,29.26,28,5,28,0.55
2013-11-2,52,44,34,44,39,31,92,83,69,29.82,29.56,16,2,16,0.08
2013-11-3,34,30,26,31,23,17,92,76,52,30.21,29.81,20,4,20,0.08
2013-11-4,33,29,26,26,21,18,85,72,53,30.20,29.93,18,4,20,0.00
2013-11-5,46,41,33,35,32,28,84,71,57,30.54,30.43,14,2,14,0.00
2013-11-6,55,47,35,45,39,31,87,74,61,30.43,29.87,15,3,23,0.00
2013-11-7,54,45,30,50,40,24,91,85,73,29.87,29.68,17,4,17,0.01
2013-11-8,35,31,27,31,25,22,91,79,66,30.08,29.79,17,3,18,0.00
2013-11-9,37,33,27,31,24,20,89,70,55,30.17,29.90,9,2,13,0.00
2013-11-10,42,38,33,37,33,30,96,85,78,29.90,29.68,18,3,18,0.01
2013-11-11,39,35,30,33,28,25,82,75,66,30.06,29.82,24,3,24,0.00
2013-11-12,38,24,20,33,18,14,90,76,67,30.23,29.83,18,5,18,0.00
2013-11-13,28,22,16,20,14,11,85,71,53,30.31,30.07,14,2,14,0.00
2013-11-14,40,34,27,30,23,19,78,65,43,30.07,30.02,14,2,14,0.00
2013-11-15,49,40,32,27,21,16,77,48,32,30.16,30.05,13,2,13,0.00
2013-11-16,53,40,31,32,28,25,86,65,36,30.27,30.14,10,1,10,0.00
2013-11-17,54,46,32,50,41,28,88,81,59,30.24,29.66,23,4,23,0.01
2013-11-18,60,49,37,56,40,29,88,73,49,29.66,29.36,20,4,24,0.02
2013-11-19,37,29,24,28,19,16,87,68,62,30.34,29.60,20,6,24,0.00
2013-11-20,32,24,17,20,17,14,87,76,57,30.63,30.34,13,2,13,0.00
2013-11-21,41,29,16,28,16,7,88,63,24,30.62,30.34,10,1,12,0.00
2013-11-22,41,38,34,40,35,27,93,89,76,30.34,29.78,12,1,12,0.01
2013-11-23,41,28,18,39,23,12,92,80,60,29.92,29.73,18,3,18,0.00
2013-11-24,18,14,9,12,3,-4,83,63,49,30.24,29.80,29,8,29,0.00
2013-11-25,27,14,-1,15,5,-6,92,66,45,30.39,30.18,13,2,13,0.00
2013-11-26,32,29,25,29,23,14,89,80,55,30.26,29.94,21,2,21,0.00
2013-11-27,42,34,27,39,32,25,93,91,88,29.94,29.33,35,6,43,0.00
2013-11-28,27,16,4,25,11,1,92,82,64,30.41,29.47,13,2,19,0.00
2013-11-29,22,10,2,20,5,-2,91,80,59,30.77,29.62,12,1,19,0.00
2013-11-30,27,15,1,17,7,-3,88,71,54,30.79,30.35,13,2,18,0.00
2013-12-1,37,32,27,30,27,18,89,80,68,30.34,30.00,10,2,13,0.00
2013-12-2,37,34,32,33,30,28,90,86,83,30.00,29.87,16,3,16,0.00
2013-12-3,41,34,28,35,30,25,93,86,74,29.96,29.87,8,1,10,0.00
2013-12-4,37,30,24,28,25,20,92,80,68,30.14,29.95,10,1,10,0.00
2013-12-5,54,45,30,50,42,26,92,87,82,30.13,29.81,23,3,23,0.00
2013-12-6,52,36,30,49,33,26,92,89,82,30.10,29.83,8,0,8,0.00
2013-12-7,30,26,21,27,19,13,89,75,57,30.43,30.06,19,3,19,0.00
2013-12-8,24,22,19,15,13,11,76,70,59,30.55,30.42,10,1,13,0.00
2013-12-9,38,28,20,34,24,13,92,83,67,30.43,29.85,31,4,34,0.00
2013-12-10,33,26,19,29,18,9,86,71,60,29.90,29.73,23,2,23,0.00
2013-12-11,24,19,15,16,12,8,82,73,65,30.13,29.90,18,2,18,0.00
2013-12-12,15,11,4,8,2,-4,82,69,49,30.26,29.95,15,2,15,0.00
2013-12-13,14,9,-6,11,4,-10,87,80,73,30.42,29.89,12,2,12,0.00
2013-12-14,11,2,-9,8,-4,-13,87,75,54,30.60,30.08,45,4,45,0.00
2013-12-15,22,19,11,19,16,8,90,88,84,30.07,29.53,48,10,52,0.00
2013-12-16,19,10,-8,16,5,-12,89,79,68,30.20,29.67,21,2,21,0.00
2013-12-17,16,2,-12,11,-3,-17,92,80,65,30.23,30.02,19,4,23,0.00
2013-12-18,25,19,8,20,16,5,92,85,79,30.02,29.92,11,0,11,0.00
2013-12-19,34,29,23,29,23,20,89,79,68,30.05,29.90,12,2,13,0.00
2013-12-20,43,38,32,39,33,28,92,84,69,30.05,29.84,14,2,14,0.00
2013-12-21,50,43,29,47,41,27,92,90,87,29.86,29.76,18,2,18,0.00
2013-12-22,54,36,25,50,33,23,95,92,83,29.92,29.58,13,0,13,0.00
2013-12-23,41,36,27,39,34,24,94,93,89,30.11,29.91,7,0,7,0.00
2013-12-24,27,18,6,24,14,2,89,84,74,30.26,30.07,0,0,0,0.00
2013-12-25,14,7,-1,9,2,-5,95,80,71,30.52,30.26,0,0,0,0.00
2013-12-26,26,22,14,22,17,7,89,82,67,30.39,30.08,0,0,0,0.00
2013-12-27,27,24,18,23,19,15,92,83,73,30.19,30.13,7,1,13,0.00
2013-12-28,36,31,18,32,26,15,90,83,77,30.13,29.97,17,2,17,0.00
2013-12-29,43,35,29,33,30,26,92,81,58,29.98,29.55,10,1,14,0.00
2013-12-30,42,22,4,33,18,-1,93,83,63,30.14,29.55,14,3,16,0.00
2013-12-31,34,10,4,32,6,-2,93,80,68,30.15,29.58,13,1,17,0.00
2014-1-1,16,10,2,9,4,-3,85,75,58,30.38,30.12,14,2,14,0.00
2014-1-2,3,-1,-8,-2,-6,-12,92,79,73,30.38,29.96,6,0,6,0.00